Hourly Weather Zielen

Today, 13 July, Monday

Time Temperature Precipitation Wind Pressure Humidity
00:00 +12°C° 0 mm 2 mps 759 mmHg 81%
01:00 +12°C° 0 mm 2 mps 759 mmHg 83%
02:00 +10°C° 0 mm 2 mps 759 mmHg 85%
03:00 +10°C° 0 mm 2 mps 758 mmHg 88%
04:00 +9°C° 0 mm 2 mps 758 mmHg 90%
05:00 +12°C° 0 mm 2 mps 758 mmHg 86%
06:00 +13°C° 0 mm 3 mps 758 mmHg 81%
07:00 +14°C° 0 mm 3 mps 758 mmHg 77%
08:00 +16°C° 0.1 mm 3 mps 758 mmHg 75%
09:00 +17°C° 0.1 mm 4 mps 758 mmHg 73%
10:00 +18°C° 0.1 mm 4 mps 757 mmHg 71%
11:00 +18°C° 0.1 mm 4 mps 757 mmHg 69%
12:00 +19°C° 0.1 mm 4 mps 757 mmHg 68%
13:00 +20°C° 0.1 mm 4 mps 757 mmHg 66%
14:00 +20°C° 0.1 mm 4 mps 756 mmHg 66%
15:00 +20°C° 0.1 mm 4 mps 756 mmHg 66%
16:00 +20°C° 0.1 mm 4 mps 755 mmHg 66%
17:00 +19°C° 0.1 mm 3 mps 755 mmHg 70%
18:00 +19°C° 0.1 mm 2 mps 755 mmHg 73%
19:00 +18°C° 0.1 mm 2 mps 755 mmHg 76%
20:00 +18°C° 0 mm 1 mps 755 mmHg 79%
21:00 +16°C° 0 mm 1 mps 755 mmHg 82%
22:00 +15°C° 0 mm 1 mps 755 mmHg 85%
23:00 +14°C° 0 mm 1 mps 755 mmHg 86%

Tomorrow, 14 July, Tuesday

Time Temperature Precipitation Wind Pressure Humidity
00:00 +13°C° 0 mm 0 mps 755 mmHg 87%
01:00 +12°C° 0 mm 0 mps 755 mmHg 88%
02:00 +12°C° 0 mm 0 mps 755 mmHg 88%
03:00 +12°C° 0 mm 0 mps 755 mmHg 88%
04:00 +12°C° 0 mm 0 mps 754 mmHg 88%
05:00 +14°C° 0 mm 1 mps 755 mmHg 84%
06:00 +16°C° 0 mm 1 mps 755 mmHg 79%
07:00 +19°C° 0 mm 1 mps 755 mmHg 74%
08:00 +19°C° 0.1 mm 2 mps 754 mmHg 69%
09:00 +20°C° 0.1 mm 2 mps 754 mmHg 63%
10:00 +21°C° 0.1 mm 2 mps 754 mmHg 57%
11:00 +23°C° 0.1 mm 1 mps 753 mmHg 55%
12:00 +23°C° 0.1 mm 1 mps 753 mmHg 53%
13:00 +24°C° 0.1 mm 1 mps 753 mmHg 51%
14:00 +24°C° 0 mm 1 mps 752 mmHg 52%
15:00 +24°C° 0 mm 1 mps 752 mmHg 52%
16:00 +24°C° 0 mm 1 mps 752 mmHg 52%
17:00 +23°C° 0 mm 1 mps 752 mmHg 56%
18:00 +22°C° 0 mm 1 mps 752 mmHg 60%
19:00 +19°C° 0 mm 0 mps 752 mmHg 64%
20:00 +20°C° 0 mm 1 mps 752 mmHg 66%
21:00 +19°C° 0 mm 1 mps 752 mmHg 68%
22:00 +17°C° 0 mm 2 mps 752 mmHg 70%
23:00 +16°C° 0 mm 2 mps 752 mmHg 74%

Day after tomorrow, 15 July, Wednesday

Time Temperature Precipitation Wind Pressure Humidity
00:00 +16°C° 0 mm 2 mps 752 mmHg 78%
01:00 +15°C° 0 mm 2 mps 752 mmHg 82%
02:00 +15°C° 0 mm 2 mps 751 mmHg 83%
03:00 +15°C° 0 mm 2 mps 751 mmHg 85%
04:00 +15°C° 0 mm 2 mps 751 mmHg 86%
05:00 +16°C° 0 mm 3 mps 751 mmHg 82%
06:00 +18°C° 0 mm 3 mps 751 mmHg 78%
07:00 +19°C° 0 mm 3 mps 751 mmHg 74%
08:00 +21°C° 0.2 mm 3 mps 750 mmHg 67%
09:00 +22°C° 0.2 mm 4 mps 750 mmHg 60%
10:00 +25°C° 0.2 mm 4 mps 750 mmHg 54%
11:00 +26°C° 0.1 mm 4 mps 749 mmHg 51%
12:00 +26°C° 0.1 mm 4 mps 749 mmHg 49%
13:00 +27°C° 0.1 mm 4 mps 749 mmHg 47%
14:00 +27°C° 0 mm 4 mps 749 mmHg 49%
15:00 +26°C° 0 mm 4 mps 749 mmHg 51%
16:00 +26°C° 0 mm 3 mps 748 mmHg 53%
17:00 +25°C° 0.2 mm 3 mps 748 mmHg 59%
18:00 +22°C° 0.2 mm 3 mps 748 mmHg 66%
19:00 +21°C° 0.2 mm 3 mps 749 mmHg 72%
20:00 +20°C° 0.1 mm 3 mps 749 mmHg 77%
21:00 +19°C° 0.1 mm 2 mps 749 mmHg 81%
22:00 +17°C° 0.1 mm 2 mps 749 mmHg 85%
23:00 +17°C° 0 mm 2 mps 749 mmHg 87%

16 July, Thursday

Time Temperature Precipitation Wind Pressure Humidity
00:00 +17°C° 0 mm 3 mps 749 mmHg 89%
01:00 +16°C° 0 mm 3 mps 749 mmHg 91%
02:00 +16°C° 0.6 mm 3 mps 749 mmHg 93%
03:00 +16°C° 0.6 mm 3 mps 749 mmHg 94%
04:00 +16°C° 0.6 mm 2 mps 749 mmHg 96%
05:00 +16°C° 0.8 mm 2 mps 749 mmHg 96%
06:00 +16°C° 0.8 mm 2 mps 750 mmHg 95%
07:00 +16°C° 0.8 mm 2 mps 750 mmHg 95%
08:00 +17°C° 0.5 mm 2 mps 750 mmHg 91%
09:00 +17°C° 0.5 mm 2 mps 750 mmHg 87%
10:00 +18°C° 0.5 mm 2 mps 751 mmHg 83%
11:00 +19°C° 0 mm 2 mps 751 mmHg 76%
12:00 +20°C° 0 mm 2 mps 751 mmHg 69%
13:00 +21°C° 0 mm 2 mps 751 mmHg 62%
14:00 +21°C° 0.3 mm 2 mps 751 mmHg 64%
15:00 +21°C° 0.3 mm 2 mps 751 mmHg 65%
16:00 +21°C° 0.3 mm 2 mps 751 mmHg 66%
17:00 +20°C° 0.3 mm 2 mps 751 mmHg 70%
18:00 +21°C° 0.3 mm 1 mps 751 mmHg 75%
19:00 +20°C° 0.3 mm 1 mps 751 mmHg 79%
20:00 +19°C° 0.3 mm 1 mps 751 mmHg 82%
21:00 +18°C° 0.3 mm 1 mps 751 mmHg 85%
22:00 +16°C° 0.3 mm 1 mps 752 mmHg 89%
23:00 +16°C° 0.3 mm 1 mps 752 mmHg 89%

17 July, Friday

Time Temperature Precipitation Wind Pressure Humidity
00:00 +16°C° 0.3 mm 1 mps 752 mmHg 90%
01:00 +16°C° 0.3 mm 1 mps 751 mmHg 91%
02:00 +16°C° 0.1 mm 1 mps 751 mmHg 91%
03:00 +16°C° 0.1 mm 2 mps 751 mmHg 91%
04:00 +15°C° 0.1 mm 2 mps 751 mmHg 92%
05:00 +16°C° 0 mm 2 mps 752 mmHg 90%
06:00 +16°C° 0 mm 2 mps 752 mmHg 89%
07:00 +17°C° 0 mm 2 mps 752 mmHg 88%
08:00 +17°C° 0.1 mm 2 mps 752 mmHg 85%
09:00 +18°C° 0.1 mm 2 mps 752 mmHg 82%
10:00 +19°C° 0.1 mm 2 mps 752 mmHg 79%
11:00 +19°C° 0.4 mm 2 mps 752 mmHg 81%
12:00 +18°C° 0.4 mm 2 mps 752 mmHg 82%
13:00 +18°C° 0.4 mm 2 mps 752 mmHg 84%
14:00 +19°C° 0.1 mm 2 mps 752 mmHg 82%
15:00 +19°C° 0.1 mm 3 mps 752 mmHg 81%
16:00 +19°C° 0.1 mm 3 mps 752 mmHg 80%
17:00 +19°C° 0.1 mm 3 mps 752 mmHg 82%
18:00 +19°C° 0.1 mm 2 mps 752 mmHg 84%
19:00 +19°C° 0.1 mm 2 mps 752 mmHg 86%
20:00 +18°C° 0.2 mm 2 mps 752 mmHg 88%
21:00 +19°C° 0.2 mm 1 mps 752 mmHg 90%
22:00 +19°C° 0.2 mm 1 mps 752 mmHg 92%
23:00 +18°C° 0.3 mm 1 mps 752 mmHg 92%

18 July, Saturday

Time Temperature Precipitation Wind Pressure Humidity
00:00 +18°C° 0.3 mm 1 mps 753 mmHg 93%
01:00 +18°C° 0.3 mm 1 mps 753 mmHg 94%
02:00 +17°C° 0.1 mm 2 mps 753 mmHg 95%
03:00 +16°C° 0.1 mm 2 mps 753 mmHg 95%
04:00 +16°C° 0.1 mm 3 mps 753 mmHg 96%
05:00 +17°C° 0 mm 3 mps 753 mmHg 93%
06:00 +18°C° 0 mm 3 mps 753 mmHg 90%
07:00 +19°C° 0 mm 4 mps 753 mmHg 87%
08:00 +20°C° 0.3 mm 4 mps 753 mmHg 81%
09:00 +22°C° 0.3 mm 4 mps 753 mmHg 75%
10:00 +23°C° 0.3 mm 4 mps 753 mmHg 69%
11:00 +25°C° 0.3 mm 5 mps 753 mmHg 66%
12:00 +25°C° 0.3 mm 5 mps 753 mmHg 63%
13:00 +26°C° 0.3 mm 5 mps 753 mmHg 60%
14:00 +26°C° 0.1 mm 4 mps 753 mmHg 60%
15:00 +26°C° 0.1 mm 4 mps 753 mmHg 59%
16:00 +26°C° 0.1 mm 4 mps 752 mmHg 59%
17:00 +25°C° 0 mm 4 mps 752 mmHg 64%
18:00 +24°C° 0 mm 3 mps 753 mmHg 69%
19:00 +22°C° 0 mm 3 mps 753 mmHg 75%
20:00 +20°C° 0 mm 3 mps 753 mmHg 78%
21:00 +19°C° 0 mm 3 mps 753 mmHg 81%
22:00 +18°C° 0 mm 3 mps 753 mmHg 85%
23:00 +17°C° 0 mm 3 mps 753 mmHg 87%
Show more